Location: Nashville
(36.1660°N, 86.7840°W)
Time: 06:47:35
(UTC-05:00)

AO-109 - Pass Details

Date: 27 May 2022
Orbit: 477 x 502 km, 60.7° (Epoch: 27 June)

Event Time Altitude Azimuth Distance (km) Brightness Sun altitude
Rises 22:59:06 0° 337° (NNW) 2,598 ? -27.2°
Reaches altitude 10° 23:01:38 10° 352° (N) 1,714 ? -27.5°
Enters shadow 23:03:51 21° 26° (NNE) 1,181 ? -27.7°
